星链-2442 (STARLINK-2442 )

导读 | 豆包AI

STARLINK-2442是美国SpaceX公司星链(Starlink)低轨通信星座的一员,于2021年4月7日发射升空,属于第二代星链组网卫星。它采用平板设计,配备氪工质霍尔推进器,支持自主轨道调整与避撞,运行在近地轨道,为全球用户提供高速宽带互联网接入服务,服役寿命约5-7年,退役后会受控坠入大气层焚毁。

基本信息
目录编号:
48106
目录名称:
STARLINK-2442
国际标识:
2021-027Q
轨道中心:
EARTH
卫星名称:
星链-2442
卫星全名:
星链-2442 (STARLINK-2442 )
卫星状态:
在轨 (已飞行1849 天)
发射日期:
2021-04-07 UTC
国别 :
美国 (US)
星等 :
--
轨道信息
数据来源 国际轨道数据 AOE轨道数据
星历时间 2026-04-30T03:26:54+0800
17小时前
查看轨道信息
2026-04-28T09:00:00+0800
2天前
查看轨道信息
半长轴 6855.912km 6855.708km
偏心率 0.0001193 0.0001448
轨道倾角 53.156° 53.155°
近地点辐角 89.544° 63.215°
升交点赤经 274.935° 283.140°
平近点角 270.570° 273.948°
近地点 476.957km 476.578km
远地点 478.593km 478.564km
周期 94.158分钟 94.154分钟
每日圈数 15.293433 15.294115
详细信息
固有亮度:
5
最大亮度:
2.5
卫星平台:
Starlink V1.0
覆盖范围:
全球
运营商:
太空探索技术公司
运营商所在国:
美国
制造商(研发单位):
太空探索技术公司
制造商所在国:
美国
使用方式:
暂无
卫星简介
星链(Starlink)计划是由太空探索技术公司(SpaceX)提出的一个巨型低轨卫星互联网星座项目,计划在2019年至2024年间在太空搭建由约1.2万颗卫星组成的“星链”网络,其中1584颗将部署在地球上空550千米处的近地轨道,并从2020年开始工作。该卫星仍在工作。
2D轨道图
3D轨道图
轨道高度分析图
轨道倾角分析图
轨道综合分析图
查看轨道综合分析图